Tracking 28091 objects as of 30-Sep-2023
HD Live streaming from Space Station
objects crossing your sky now

STARLINK-6304

Track STARLINK-6304 now!
10-day predictions
STARLINK-6304 is classified as:


NORAD ID: 56778
Int'l Code: 2023-078M
Perigee: 364.0 km
Apogee: 368.4 km
Inclination: 70.0 °
Period: 91.7 minutes
Semi major axis: 6737 km
RCS: Unknown
Launch date: May 31, 2023
Source: United States (US)
Launch site: AIR FORCE WESTERN TEST RANGE (AFWTR)
Your satellite tracking list
Your tracking list is empty




NASA's NSSDC Master Catalog

Two Line Element Set (TLE):
1 56778U 23078M   23272.93973438  .00003895  00000-0  34142-4 0  9998
2 56778  70.0004  71.2341 0003262 258.6625 101.4205 15.69929068 19144
Source of the keplerian elements: AFSPC